Change the Weather History Date:

Sunday, November 24, 2013

  Actual Average Record
Temperature  
Mean Temperature 28 °F 24 °F  
Max Temperature 46 °F 35 °F 63 °F (1942)
Min Temperature 10 °F 15 °F -26 °F (1985)
Degree Days  
Heating Degree Days 37 40  
Month to date heating degree days 871 820  
Since 1 July heating degree days 1709 1732  
Cooling Degree Days 0 0  
Month to date cooling degree days 0 0  
Year to date cooling degree days 555 520  
Moisture  
Dew Point 19 °F    
Average Humidity 65    
Maximum Humidity 92    
Minimum Humidity 38    
Precipitation  
Precipitation T in 0.02 in 0.58 in (1908)
Month to date precipitation 0.09 0.61  
Year to date precipitation 25.49 17.26  
Snow  
Snow 0.00 in 0.30 in 10.80 in (1993)
Month to date snowfall 0.6 7.0  
Since 1 July snowfall 1.6 9.4  
Since 1 September snowfall 1.6 9.4  
Snow Depth 0.00 in    
Sea Level Pressure  
Sea Level Pressure 30.08 in    
Wind  
Wind Speed 8 mph (WSW)    
Max Wind Speed 17 mph    
Max Gust Speed 23 mph    
Visibility 10 miles    
Events Rain    
T = Trace of Precipitation, MM = Missing Value Source: NWS Daily Summary

Daily Weather History Graph

Daily Weather History Graph

Search for Another Location

Airport or City:

Trip Planner

Search our weather history database for the weather conditions in past years. The results will help you decide how hot, cold, wet, or windy it might be!

Date:

Astronomy

Nov. 24, 2013 Rise Set
Actual Time 7:58 AM CST 5:00 PM CST
Civil Twilight 7:24 AM CST 5:34 PM CST
Nautical Twilight 6:47 AM CST 6:11 PM CST
Astronomical Twilight 6:11 AM CST 6:48 PM CST
Moon 11:40 PM CST (11/24) 12:36 PM CST (11/24)
Length of Visible Light 10h 09m
Length of Day
9h 01m
Waning Gibbous, 60% of the Moon is Illuminated
Nov 24
Waning Gibbous
Nov 25
Last Quarter
Dec 2
New
Dec 9
First Quarter
Dec 17
Full

Hourly Weather History & Observations

Time (CST) Temp. Windchill Dew Point Humidity Pressure Visibility Wind Dir Wind Speed Gust Speed Precip Events Conditions
12:52 AM 14.0 °F 3.9 °F 10.0 °F 84% 30.42 in 10.0 mi SSE 6.9 mph - N/A   Clear
1:52 AM 15.1 °F 4.2 °F 10.0 °F 80% 30.36 in 10.0 mi SSE 8.1 mph - N/A   Clear
2:52 AM 14.0 °F 6.5 °F 10.0 °F 84% 30.33 in 10.0 mi SSE 4.6 mph - N/A   Clear
3:52 AM 12.0 °F 5.9 °F 9.0 °F 88% 30.28 in 10.0 mi SSE 3.5 mph - N/A   Clear
4:52 AM 12.0 °F 4.1 °F 9.0 °F 88% 30.25 in 10.0 mi SSE 4.6 mph - N/A   Clear
5:52 AM 16.0 °F - 12.0 °F 84% 30.22 in 10.0 mi Calm Calm - N/A   Clear
6:52 AM 12.9 °F 6.9 °F 10.0 °F 88% 30.18 in 10.0 mi SSE 3.5 mph - N/A   Clear
7:52 AM 14.0 °F - 10.0 °F 84% 30.14 in 10.0 mi Calm Calm - N/A   Clear
8:52 AM 23.0 °F 15.8 °F 15.1 °F 72% 30.10 in 10.0 mi SSW 5.8 mph - N/A   Clear
9:52 AM 28.0 °F 18.6 °F 16.0 °F 61% 30.05 in 10.0 mi SSW 10.4 mph - N/A   Clear
10:52 AM 33.1 °F 26.9 °F 17.1 °F 52% 30.02 in 10.0 mi SW 6.9 mph - N/A   Clear
11:52 AM 39.0 °F 31.8 °F 21.0 °F 49% 29.99 in 10.0 mi SW 11.5 mph - N/A   Clear
12:52 PM 44.1 °F 38.6 °F 23.0 °F 43% 29.97 in 10.0 mi WSW 10.4 mph - N/A   Clear
1:52 PM 45.0 °F 39.7 °F 25.0 °F 46% 29.94 in 10.0 mi West 10.4 mph - N/A   Clear
2:52 PM 46.0 °F 41.0 °F 23.0 °F 40% 29.91 in 10.0 mi WNW 10.4 mph - N/A   Clear
3:52 PM 44.1 °F 39.5 °F 24.1 °F 45% 29.93 in 10.0 mi WNW 8.1 mph - N/A   Mostly Cloudy
4:52 PM 41.0 °F 33.5 °F 27.0 °F 57% 29.97 in 10.0 mi WNW 13.8 mph - 0.00 in Rain Light Rain
5:52 PM 37.9 °F 32.7 °F 25.0 °F 60% 29.96 in 10.0 mi WNW 6.9 mph - 0.00 in   Mostly Cloudy
6:52 PM 36.0 °F 29.6 °F 25.0 °F 64% 29.99 in 10.0 mi WNW 8.1 mph - N/A   Mostly Cloudy
7:52 PM 35.1 °F 30.1 °F 25.0 °F 67% 29.99 in 10.0 mi WNW 5.8 mph - N/A   Clear
8:52 PM 37.9 °F 30.9 °F 25.0 °F 60% 29.96 in 10.0 mi West 10.4 mph 21.9 mph N/A   Clear
9:52 PM 34.0 °F 28.0 °F 25.0 °F 70% 29.98 in 10.0 mi WSW 6.9 mph - N/A   Clear
10:52 PM 37.0 °F 28.1 °F 26.1 °F 65% 29.99 in 10.0 mi NW 15.0 mph 19.6 mph N/A   Clear
11:52 PM 36.0 °F 26.3 °F 26.1 °F 67% 30.00 in 10.0 mi NW 16.1 mph - N/A   Clear